Hourly Weather Gogaz

Today, 18 January, Monday

Time Temperature Precipitation Wind Pressure Humidity
00:00 -5°C° 0 mm 4 mps 572 mmHg 41%
01:00 -5°C° 0 mm 4 mps 572 mmHg 45%
02:00 -5°C° 0 mm 4 mps 571 mmHg 49%
03:00 -5°C° 0 mm 3 mps 571 mmHg 56%
04:00 -5°C° 0 mm 3 mps 571 mmHg 57%
05:00 -5°C° 0 mm 3 mps 572 mmHg 58%
06:00 -5°C° 0 mm 3 mps 572 mmHg 58%
07:00 -5°C° 0 mm 3 mps 572 mmHg 62%
08:00 -4°C° 0 mm 3 mps 573 mmHg 66%
09:00 -2°C° 0 mm 3 mps 574 mmHg 70%
10:00 -2°C° 0 mm 3 mps 574 mmHg 70%
11:00 -2°C° 0 mm 3 mps 575 mmHg 69%
12:00 -1°C° 0 mm 3 mps 576 mmHg 68%
13:00 -2°C° 0 mm 3 mps 575 mmHg 69%
14:00 -2°C° 0 mm 3 mps 575 mmHg 70%
15:00 -3°C° 0 mm 2 mps 575 mmHg 71%
16:00 -4°C° 0.3 mm 2 mps 575 mmHg 78%
17:00 -5°C° 0.3 mm 2 mps 575 mmHg 85%
18:00 -4°C° 0.3 mm 1 mps 575 mmHg 91%
19:00 -6°C° 1.6 mm 2 mps 575 mmHg 92%
20:00 -6°C° 1.6 mm 2 mps 575 mmHg 93%
21:00 -6°C° 1.6 mm 2 mps 575 mmHg 93%
22:00 -7°C° 0.2 mm 2 mps 575 mmHg 92%
23:00 -8°C° 0.2 mm 2 mps 575 mmHg 92%

Tomorrow, 19 January, Tuesday

Time Temperature Precipitation Wind Pressure Humidity
00:00 -8°C° 0.2 mm 2 mps 575 mmHg 91%
01:00 -8°C° 0.3 mm 2 mps 575 mmHg 92%
02:00 -10°C° 0.3 mm 3 mps 575 mmHg 93%
03:00 -10°C° 0.3 mm 3 mps 576 mmHg 95%
04:00 -10°C° 0.8 mm 3 mps 576 mmHg 94%
05:00 -10°C° 0.8 mm 3 mps 576 mmHg 94%
06:00 -10°C° 0.8 mm 2 mps 577 mmHg 94%
07:00 -10°C° 0.6 mm 2 mps 577 mmHg 92%
08:00 -10°C° 0.6 mm 2 mps 577 mmHg 91%
09:00 -10°C° 0.6 mm 2 mps 578 mmHg 89%
10:00 -10°C° 0.2 mm 2 mps 578 mmHg 89%
11:00 -10°C° 0.2 mm 2 mps 578 mmHg 90%
12:00 -9°C° 0.2 mm 2 mps 578 mmHg 90%
13:00 -10°C° 0.5 mm 2 mps 578 mmHg 91%
14:00 -10°C° 0.5 mm 2 mps 577 mmHg 92%
15:00 -12°C° 0.5 mm 2 mps 577 mmHg 93%
16:00 -12°C° 0.4 mm 2 mps 577 mmHg 94%
17:00 -11°C° 0.4 mm 1 mps 577 mmHg 95%
18:00 -12°C° 0.4 mm 1 mps 577 mmHg 95%
19:00 -12°C° 0.2 mm 1 mps 577 mmHg 95%
20:00 -12°C° 0.2 mm 1 mps 577 mmHg 94%
21:00 -12°C° 0.2 mm 1 mps 577 mmHg 93%
22:00 -12°C° 0.1 mm 1 mps 577 mmHg 92%
23:00 -12°C° 0.1 mm 1 mps 577 mmHg 91%

Day after tomorrow, 20 January, Wednesday

Time Temperature Precipitation Wind Pressure Humidity
00:00 -12°C° 0.1 mm 1 mps 577 mmHg 90%
01:00 -13°C° 0.1 mm 1 mps 577 mmHg 89%
02:00 -13°C° 0.1 mm 1 mps 576 mmHg 88%
03:00 -13°C° 0.1 mm 1 mps 576 mmHg 87%
04:00 -13°C° 0 mm 1 mps 576 mmHg 86%
05:00 -13°C° 0 mm 1 mps 576 mmHg 86%
06:00 -14°C° 0 mm 1 mps 576 mmHg 86%
07:00 -13°C° 0 mm 1 mps 576 mmHg 87%
08:00 -12°C° 0 mm 1 mps 577 mmHg 87%
09:00 -12°C° 0 mm 1 mps 577 mmHg 88%
10:00 -11°C° 0.1 mm 1 mps 577 mmHg 89%
11:00 -11°C° 0.1 mm 1 mps 577 mmHg 90%
12:00 -13°C° 0.1 mm 2 mps 577 mmHg 91%
13:00 -13°C° 0.4 mm 2 mps 577 mmHg 92%
14:00 -13°C° 0.4 mm 2 mps 577 mmHg 93%
15:00 -13°C° 0.4 mm 2 mps 577 mmHg 94%
16:00 -14°C° 0.3 mm 2 mps 577 mmHg 95%
17:00 -13°C° 0.3 mm 1 mps 577 mmHg 96%
18:00 -13°C° 0.3 mm 1 mps 577 mmHg 97%
19:00 -14°C° 0.2 mm 1 mps 577 mmHg 97%
20:00 -14°C° 0.2 mm 1 mps 577 mmHg 97%
21:00 -15°C° 0.2 mm 1 mps 577 mmHg 97%
22:00 -15°C° 0.1 mm 1 mps 576 mmHg 97%
23:00 -16°C° 0.1 mm 1 mps 576 mmHg 96%

21 January, Thursday

Time Temperature Precipitation Wind Pressure Humidity
00:00 -17°C° 0.1 mm 1 mps 576 mmHg 96%
01:00 -17°C° 0.1 mm 1 mps 576 mmHg 96%
02:00 -18°C° 0.1 mm 1 mps 575 mmHg 95%
03:00 -18°C° 0.1 mm 1 mps 575 mmHg 95%
04:00 -18°C° 0.1 mm 1 mps 575 mmHg 93%
05:00 -19°C° 0.1 mm 1 mps 576 mmHg 92%
06:00 -21°C° 0.1 mm 2 mps 576 mmHg 91%
07:00 -20°C° 0 mm 2 mps 577 mmHg 88%
08:00 -19°C° 0 mm 2 mps 578 mmHg 85%
09:00 -19°C° 0 mm 2 mps 579 mmHg 82%
10:00 -15°C° 0 mm 1 mps 579 mmHg 79%
11:00 -14°C° 0 mm 1 mps 580 mmHg 75%
12:00 -13°C° 0 mm 1 mps 581 mmHg 71%
13:00 -13°C° 0 mm 1 mps 581 mmHg 76%
14:00 -13°C° 0 mm 1 mps 581 mmHg 81%
15:00 -13°C° 0 mm 1 mps 581 mmHg 86%
16:00 -16°C° 0 mm 2 mps 581 mmHg 84%
17:00 -18°C° 0 mm 2 mps 580 mmHg 83%
18:00 -21°C° 0 mm 3 mps 580 mmHg 82%
19:00 -21°C° 0 mm 3 mps 580 mmHg 77%
20:00 -22°C° 0 mm 3 mps 580 mmHg 71%
21:00 -22°C° 0 mm 3 mps 580 mmHg 66%
22:00 -21°C° 0 mm 3 mps 580 mmHg 62%
23:00 -21°C° 0 mm 3 mps 581 mmHg 59%

22 January, Friday

Time Temperature Precipitation Wind Pressure Humidity
00:00 -21°C° 0 mm 3 mps 581 mmHg 56%
01:00 -21°C° 0 mm 3 mps 581 mmHg 53%
02:00 -19°C° 0 mm 3 mps 581 mmHg 50%
03:00 -19°C° 0 mm 3 mps 581 mmHg 47%
04:00 -19°C° 0 mm 3 mps 581 mmHg 44%
05:00 -19°C° 0 mm 3 mps 581 mmHg 42%
06:00 -17°C° 0 mm 2 mps 582 mmHg 39%
07:00 -16°C° 0 mm 2 mps 583 mmHg 42%
08:00 -14°C° 0 mm 2 mps 584 mmHg 46%
09:00 -13°C° 0 mm 2 mps 585 mmHg 49%
10:00 -10°C° 0 mm 2 mps 585 mmHg 50%
11:00 -7°C° 0 mm 1 mps 586 mmHg 51%
12:00 -4°C° 0 mm 1 mps 587 mmHg 52%
13:00 -6°C° 0 mm 1 mps 586 mmHg 57%
14:00 -6°C° 0 mm 1 mps 586 mmHg 63%
15:00 -6°C° 0 mm 1 mps 586 mmHg 69%
16:00 -7°C° 0 mm 1 mps 585 mmHg 58%
17:00 -10°C° 0 mm 2 mps 584 mmHg 47%
18:00 -13°C° 0 mm 2 mps 583 mmHg 37%
19:00 -13°C° 0 mm 2 mps 583 mmHg 33%
20:00 -12°C° 0 mm 2 mps 583 mmHg 29%
21:00 -12°C° 0 mm 2 mps 583 mmHg 25%
22:00 -12°C° 0 mm 2 mps 583 mmHg 24%
23:00 -13°C° 0 mm 3 mps 582 mmHg 24%

23 January, Saturday

Time Temperature Precipitation Wind Pressure Humidity
00:00 -13°C° 0 mm 3 mps 582 mmHg 23%
01:00 -13°C° 0 mm 3 mps 582 mmHg 23%
02:00 -12°C° 0 mm 3 mps 582 mmHg 22%
03:00 -12°C° 0 mm 3 mps 582 mmHg 22%
04:00 -12°C° 0 mm 3 mps 582 mmHg 23%
05:00 -12°C° 0 mm 3 mps 582 mmHg 24%
06:00 -10°C° 0 mm 3 mps 581 mmHg 25%
07:00 -9°C° 0 mm 3 mps 582 mmHg 30%
08:00 -9°C° 0 mm 3 mps 583 mmHg 35%
09:00 -7°C° 0 mm 2 mps 583 mmHg 40%
10:00 -5°C° 0 mm 2 mps 583 mmHg 46%
11:00 -4°C° 0 mm 2 mps 584 mmHg 53%
12:00 0°C° 0 mm 1 mps 584 mmHg 60%
13:00 -1°C° 0 mm 1 mps 584 mmHg 62%
14:00 -1°C° 0 mm 1 mps 583 mmHg 64%
15:00 -1°C° 0 mm 1 mps 583 mmHg 66%
16:00 -3°C° 0 mm 1 mps 582 mmHg 57%
17:00 -7°C° 0 mm 2 mps 581 mmHg 48%
18:00 -8°C° 0 mm 2 mps 580 mmHg 39%
19:00 -8°C° 0 mm 2 mps 580 mmHg 37%
20:00 -8°C° 0 mm 2 mps 580 mmHg 35%
21:00 -8°C° 0 mm 2 mps 580 mmHg 33%
22:00 -8°C° 0 mm 2 mps 580 mmHg 33%
23:00 -8°C° 0 mm 2 mps 580 mmHg 33%
Show more